Погода в Медногорске

Россия / Оренбургская область     51°24′13″N   57°34′59″E
темп.,
°C
ветер,
м/с
пор.,
м/с
влажн.,
%
обл.,
%
осадки,
мм/ч
давл.,
гПа
погр.,
м
15 апреля, чт
чт1523:00+7в410750 0.0 1029150
02:00+6в32780 0.0 102921
05:00+5в32750 0.0 102917
08:00+3всв33950 0.0 102839
11:00+7в269677 0.0 1027147
14:00+14вюв46570 0.0 1025473
17:00+16вюв46480 0.0 1023568
20:00+11в32550 0.0 102213
16 апреля, пт
пт1623:00+9в22570 0.0 102211
02:00+7всв226127 0.0 102110
05:00+6всв226352 0.0 102110
08:00+8всв226471 0.0 102134
11:00+14в344781 0.0 1020429
14:00+17вюв333457 0.0 10191027
17:00+18вюв333048 0.0 10191414
20:00+13всв334950 0.0 101920
17 апреля, сб
сб1723:00+10всв376196 0.0 101987
02:00+9всв496692 0.0 1019126
05:00+7всв5118367 0.0 1020214
08:00+7всв7119472 0.0 1021303
11:00+11всв810745 0.0 1021504
14:00+14в67563 0.0 1021874
17:00+15в66505 0.0 10201180
20:00+12всв49673 0.0 1020189
18 апреля, вс
вс1823:00+9всв612814 0.0 1020252
02:00+7всв49850 0.0 1020180
05:00+6всв34890 0.0 102066
08:00+7св24822 0.0 1020145
11:00+13ссв22610 0.0 1019564
14:00+16ссз23487 0.0 10171411
17:00+17сз44385 0.0 10161984
20:00+12ссз48541 0.0 1017156
19 апреля, пн
пн1923:00+9всв511684 0.0 1018319
02:00+4всв11168222 0.0 1021584
05:00+2всв1116765 0.0 1023627
08:00+1в11176878 0.0 1026729
11:00+2в11145383 0.0 1027887
14:00+4в10124089 0.0 10271151
17:00+4в91036100 0.0 10281272
20:00+2в91241100 0.0 1029995